User: anonymous   Login
Location: Theydon Bois
(51.6750°N, 0.1050°E)
Time: 19:41:40
(UTC+01:00)
Language:

Cosmos 1315 Rocket - Orbit

View from above orbital plane
View from above orbital plane
View from above satellite
View from above satellite

Ground track
Ground track

The orbit data is extracted from the following two-line orbital elements,

1 12904U 81103B   17290.95102184 -.00000093 +00000-0 -80588-5 0  9996
2 12904 081.1753 135.3638 0028833 023.7918 336.4630 15.05367755511079
Epoch (UTC): 17 October 2017 22:49:28
Eccentricity: 0.0028833
inclination: 81.1753°
perigee height: 530 km
apogee height: 570 km
right ascension of ascending node: 135.3638°
argument of perigee: 23.7918°
revolutions per day: 15.05367755
mean anomaly at epoch: 336.4630°
orbit number at epoch: 51107

The dashed part of the orbit path shows where the satellite is in the earth's shadow,  

DLR